Temp
50 50 50 56 56 55 56 54 46 62 62 47 53 49 56 60 65 72 70 69 69 66 67 66 64 63 69 77 74 67 70 65 58 64 76 77 73 68 68 56 54 59 55 52
49 49 50 55 55 55 56 52 56 62 59 42 47 55 57 62 62 65 67 65 67 68 64 60 66 67 74 75 73 64 66 59 52 57 66 72 67 70 69 67 63 55 47 52
49 49 51 55 55 56 56 51 42 49 52 59 53 52 53 55 65 66 69 66 67 64 61 67 64 65 69 71 71 56 62 62 59 51 58 67 63 67 69 66 54 55 55 58
48 49 51 55 55 56 55 51 49 52 42 48 54 58 57 54 55 64 68 64 63 61 56 60 60 65 62 64 56 62 62 55 60 63 65 66 64 64 65 63 64 56 60 61
47 49 51 54 55 56 53 49 51 55 53 52 52 54 55 55 59 60 58 59 64 62 57 60 55 60 59 60 62 60 64 53 58 55 62 63 60 63 64 64 64 64 64 62
47 49 53 55 55 57 52 58 64 59 50 49 47 50 56 57 60 62 66 63 61 59 62 64 65 64 63 65 63 60 58 54 51 45 57 56 46 56 60 61 65 64 57 64
47 48 55 55 55 57 55 57 60 51 47 50 50 54 57 59 60 59 64 65 61 67 64 65 62 60 61 64 62 64 57 55 51 43 45 33 53 67 66 62 64 66 67 68
46 47 51 55 55 56 55 55 54 54 46 53 54 54 55 59 61 59 62 66 69 65 61 46 38 42 49 55 61 60 61 53 39 36 37 45 52 58 59 59 59 69 67 70
46 47 48 49 52 53 50 50 56 54 48 46 58 54 57 52 52 55 59 67 69 60 50 40 36 35 44 45 49 60 58 55 42 33 32 33 53 65 69 64 47 66 68 67
46 47 47 48 49 49 49 45 50 51 38 42 46 49 49 57 55 52 55 57 56 55 45 39 37 38 48 39 41 40 44 44 38 37 34 42 59 66 68 48 53 69 71 71
46 47 47 48 48 48 46 44 46 45 37 39 44 44 46 49 53 48 46 49 44 44 43 40 35 36 41 43 51 47 42 38 37 39 35 33 62 63 53 60 66 68 69 70
48 47 48 48 48 48 49 42 47 45 39 37 43 44 45 44 42 41 39 40 39 37 42 39 39 35 40 43 38 55 40 45 43 45 44 59 65 64 68 66 60 61 62 64
48 48 48 48 48 49 49 44 45 44 36 37 39 41 44 47 46 47 37 38 39 35 37 34 34 37 37 36 39 42 52 55 45 48 56 60 63 58 56 55 56 59 60 59
48 48 49 49 49 49 50 45 48 46 42 34 36 50 47 51 49 47 46 42 40 37 37 32 32 32 36 35 37 37 44 47 47 47 54 51 55 50 52 51 52 54 54 53
49 49 49 50 49 49 49 49 51 52 44 35 37 48 51 53 51 48 47 43 39 37 33 33 33 36 36 37 37 38 50 48 41 37 44 44 45 51 53 52 51 52 49 49
49 49 50 49 48 49 43 35 45 51 53 43 36 44 44 48 49 47 46 45 42 41 36 34 36 42 39 33 35 50 55 56 55 51 56 53 54 56 57 54 53 52 51 52
48 49 49 48 48 47 42 40 46 49 52 42 35 34 40 46 48 45 43 46 42 41 37 35 39 40 41 35 33 48 51 53 54 55 54 51 56 54 58 59 59 58 59 59
48 48 48 48 48 46 43 48 49 51 44 46 36 33 38 44 39 36 45 40 40 37 37 36 36 41 40 31 43 49 52 54 54 55 57 56 58 58 57 59 58 55 55 55
48 47 47 43 41 35 41 48 48 48 45 36 39 36 31 45 39 41 41 43 33 40 35 37 41 38 33 40 45 49 51 51 52 56 56 56 54 55 56 56 55 53 52 51
47 44 38 32 38 48 48 40 35 35 36 43 41 47 36 44 41 37 37 39 36 31 38 45 37 37 46 50 52 53 51 52 53 49 47 50 50 51 52 53 51 51 49 44
43 37 33 41 47 44 38 32 33 33 32 41 44 46 39 48 37 36 44 36 38 31 39 37 36 37 46 48 49 51 51 52 52 53 53 52 50 49 46 41 40 38 38 36
47 43 42 41 42 37 33 33 37 38 38 42 42 42 45 46 48 41 40 36 38 31 43 34 31 42 48 48 49 49 49 48 47 45 43 40 39 39 37 35 34 33 34 33
54 46 36 38 38 30 31 28 35 36 41 44 42 37 39 43 46 40 39 32 31 44 33 32 39 47 48 48 48 45 45 43 41 38 36 35 34 34 33 32 33 33 33 33
43 38 29 33 30 36 39 40 41 44 44 44 43 37 39 42 38 38 31 38 39 30 27 32 41 41 44 44 43 41 37 35 34 33 34 33 32 32 32 32 32 32 32 32
42 42 31 35 41 41 42 43 42 45 46 41 37 39 42 38 33 37 36 30 28 33 33 39 40 42 44 42 40 37 35 34 35 35 33 32 33 33 32 33 34 33 32 31
45 43 37 41 35 32 35 36 36 44 41 44 43 37 33 32 35 33 31 32 30 37 41 41 45 44 43 40 37 36 37 39 38 37 36 35 33 33 34 33 32 30 30 28
43 38 44 42 40 35 35 37 37 44 40 35 39 32 32 40 33 32 38 35 40 41 40 44 44 43 40 36 34 33 34 38 37 37 37 37 37 37 36 33 34 34 33 27
MSLP
1000.28 999.87 999.33 998.47 999.55 999.91 1001.33 1002.46 1004.37 1004.22 1007.25 1008.32 1007.21 1004.83 1002.87 1003.66 1003.07 1001.94 1001.02 1001.00 1000.56 1000.65 1000.85 1000.81 1001.11 1001.02 1000.94 1000.91 1001.43 1001.79 1002.16 1001.94 1001.34 1000.95 1000.58 1000.69 1000.79 1000.78 1001.21 1001.51 1001.66 1001.15 1000.48 998.81
999.06 998.93 998.52 996.52 997.50 998.78 999.62 999.60 1000.21 1003.74 1005.61 1005.32 1004.12 1003.31 1003.78 1003.41 1002.56 1001.71 1001.05 1000.97 1001.01 1001.17 1000.84 1001.03 1000.60 1000.71 1000.95 1001.31 1001.68 1002.66 1002.84 1002.46 1001.98 1001.51 1001.40 1000.73 1000.36 1000.34 1000.79 1001.26 1001.46 1000.83 1000.53 998.60
997.49 996.96 996.60 995.70 996.20 997.24 998.86 998.64 1000.08 1002.71 1004.19 1003.08 1002.42 1002.77 1002.19 1002.23 1002.19 1001.49 1000.93 1001.20 1001.42 1001.54 1001.27 1000.97 1000.96 1001.22 1001.53 1002.11 1002.44 1003.34 1003.69 1003.14 1002.40 1001.67 1001.42 1001.04 1000.24 999.97 1000.14 1000.54 1000.31 1000.10 999.16 998.54
995.83 995.91 994.73 994.07 995.13 996.25 997.28 997.58 997.60 998.60 999.79 1000.61 999.01 1001.07 1001.05 1000.93 1000.91 1000.54 1000.85 1000.42 1000.80 1001.64 1001.75 1001.40 1001.56 1002.06 1002.96 1003.53 1003.84 1004.15 1004.67 1003.81 1003.61 1002.55 1002.26 1001.99 1000.96 1000.09 1000.25 1000.01 999.82 999.25 997.91 997.12
994.71 993.31 992.81 991.94 993.47 995.48 996.33 996.15 996.35 998.00 997.43 1000.36 1000.72 999.92 999.72 999.24 999.51 999.83 999.53 999.87 1000.50 1001.41 1001.12 1001.50 1002.47 1002.94 1003.11 1003.36 1004.31 1004.61 1004.78 1004.07 1004.86 1003.11 1003.34 1002.82 1000.86 999.97 1000.15 999.97 999.29 998.06 997.52 994.57
993.20 991.11 988.88 990.51 991.81 993.93 993.54 994.96 995.25 996.28 997.55 999.00 999.65 998.23 996.39 997.19 999.87 999.48 999.12 1000.00 1000.59 1000.46 1001.31 1002.21 1003.03 1003.61 1003.48 1003.31 1003.64 1004.22 1004.79 1005.05 1005.69 1003.30 1004.98 1004.18 1000.70 999.89 999.34 998.32 998.27 998.13 996.40 994.50
992.05 989.30 987.26 989.22 991.00 992.45 993.34 994.19 994.45 995.38 995.96 997.15 995.99 996.63 998.65 998.46 998.54 998.79 999.39 999.57 999.68 1000.60 1002.01 1002.91 1003.70 1004.24 1004.07 1003.89 1003.88 1004.23 1004.62 1005.18 1006.11 1005.19 1006.48 1004.70 997.19 999.08 998.80 998.09 997.14 997.03 996.03 996.12
992.14 990.52 988.30 988.86 990.87 992.43 992.87 993.96 994.44 994.69 995.72 996.32 997.93 998.24 998.19 999.18 999.24 998.89 998.87 998.89 999.73 1001.22 1002.75 1004.37 1005.47 1005.64 1005.26 1003.82 1003.88 1004.24 1005.18 1005.96 1006.94 1007.35 1006.23 1003.08 998.50 1000.00 999.29 997.82 996.20 996.32 995.64 995.25
992.73 991.55 990.76 990.25 990.81 991.96 993.20 994.75 994.78 995.61 996.95 997.87 998.04 998.12 998.56 998.83 999.16 999.66 998.77 999.81 1000.51 1001.97 1003.62 1005.12 1005.90 1005.66 1004.92 1004.21 1003.78 1004.09 1005.01 1006.07 1007.29 1007.66 1006.32 1002.99 998.35 998.43 997.77 997.92 995.33 996.42 995.82 995.29
992.91 992.75 992.42 992.05 991.94 992.09 993.36 996.26 996.40 997.02 998.56 999.84 999.49 999.22 999.10 998.98 999.58 999.84 1000.39 1000.65 1001.58 1002.61 1004.25 1005.52 1005.56 1005.15 1004.64 1004.10 1003.28 1003.80 1004.47 1005.10 1005.31 1005.84 1005.18 1001.06 999.09 999.13 998.51 997.81 996.63 995.69 995.60 995.43
993.28 993.64 993.97 993.51 992.94 993.50 994.10 997.23 997.86 997.81 999.74 1001.35 1001.00 1000.99 1001.02 1000.93 1000.67 1001.07 1001.93 1002.71 1003.07 1004.19 1004.92 1005.44 1005.67 1005.13 1003.96 1003.56 1002.48 1002.18 1003.08 1003.73 1003.98 1004.58 1004.25 1000.35 999.42 998.66 998.66 997.11 997.20 996.99 996.92 996.27
993.55 994.58 995.09 994.99 995.20 994.87 994.84 997.36 998.23 998.66 1000.01 1002.48 1002.54 1002.79 1003.11 1002.67 1002.79 1002.96 1003.77 1003.85 1004.61 1005.41 1005.18 1005.54 1005.66 1005.20 1004.15 1003.39 1002.32 1001.74 1001.97 1001.86 1002.05 1002.16 999.99 999.87 999.09 998.43 998.20 998.37 998.63 998.78 998.31 997.89
993.73 994.87 995.25 995.46 996.10 996.58 997.00 998.11 998.62 999.39 1001.34 1002.79 1002.81 1003.11 1003.47 1003.38 1003.53 1003.87 1004.04 1004.84 1005.64 1006.61 1006.73 1006.72 1006.27 1005.40 1005.16 1004.04 1003.45 1002.39 1000.97 1000.82 1001.06 1001.09 999.46 999.60 999.62 999.96 1000.66 1000.98 1000.62 1000.77 1000.56 999.58
994.25 994.90 995.29 995.91 996.68 997.14 997.68 998.13 998.99 999.47 1000.90 1001.91 1003.18 1003.25 1003.03 1003.39 1004.04 1004.15 1004.22 1005.39 1006.54 1007.33 1007.40 1007.25 1007.14 1006.90 1006.60 1005.57 1004.90 1004.28 1002.90 1001.91 1001.22 1000.77 1000.20 1000.66 1000.51 1001.62 1002.11 1001.87 1001.70 1001.76 1001.78 1001.11
994.36 994.90 995.38 996.09 997.00 997.73 998.66 998.98 999.19 999.22 999.71 1001.02 1002.10 1002.57 1003.08 1003.31 1003.50 1004.04 1004.66 1005.52 1006.58 1007.29 1007.81 1007.66 1007.46 1007.29 1007.15 1006.30 1005.65 1004.08 1002.91 1001.74 1002.05 1002.03 1002.33 1002.72 1001.73 1001.88 1001.63 1001.69 1002.02 1001.45 1001.34 1001.52
994.96 994.93 995.85 996.69 997.60 998.32 998.85 1000.05 1000.00 999.42 998.71 999.82 1001.58 1002.96 1003.08 1003.27 1003.45 1003.92 1004.55 1005.44 1006.32 1006.85 1007.46 1007.57 1007.17 1006.85 1006.77 1006.37 1004.92 1002.61 1002.20 1001.74 1001.43 1001.59 1001.45 1001.08 1000.66 1001.08 1001.24 1001.30 1001.29 1001.29 1001.60 1001.48
995.22 995.59 996.22 997.29 997.95 998.59 999.40 999.69 999.13 999.45 999.57 1000.31 1001.71 1002.79 1003.82 1003.52 1003.52 1004.06 1004.65 1005.09 1006.06 1006.67 1007.05 1006.97 1006.64 1006.52 1006.39 1005.57 1003.38 1002.04 1002.12 1001.92 1001.52 1001.16 1001.06 1000.55 1000.48 1000.22 1000.65 1000.76 1000.70 1000.68 1000.57 1000.60
995.84 996.47 997.17 997.98 998.60 999.52 999.83 999.85 999.94 1000.29 1000.44 1000.61 1000.96 1002.45 1003.42 1003.83 1003.70 1004.15 1004.65 1005.25 1006.20 1006.72 1006.82 1007.08 1006.16 1005.53 1005.19 1004.24 1002.68 1001.75 1001.22 1000.94 1000.68 1000.61 1000.54 1000.24 1000.17 1000.29 1000.31 1000.37 1000.56 1000.62 1000.41 1000.53
996.48 997.37 998.11 999.07 999.77 1000.28 1000.60 1000.74 1000.79 1000.92 1001.12 1000.67 1000.43 1000.69 1002.49 1003.39 1003.74 1004.42 1005.02 1005.25 1005.93 1006.47 1006.22 1005.49 1004.99 1004.24 1003.41 1002.24 1001.89 1001.23 1000.80 1000.62 1000.32 1000.05 1000.08 1000.21 1000.27 1000.26 1000.24 1000.36 1000.50 1000.95 1000.99 1001.26
997.37 998.12 998.95 999.97 1000.01 1000.43 1000.71 1001.25 1001.58 1001.51 1001.12 1000.37 999.79 999.75 1001.38 1002.37 1003.05 1003.79 1004.56 1004.85 1004.77 1004.76 1004.05 1003.71 1003.68 1002.75 1001.98 1001.27 1001.10 1000.93 1001.03 1000.80 1000.54 1000.51 1000.61 1000.77 1000.89 1000.95 1000.86 1000.81 1001.46 1001.63 1001.88 1002.64
997.65 998.83 999.87 1000.15 1000.18 1000.33 1000.74 1000.97 1000.89 1001.02 1001.05 1000.45 999.77 999.74 1000.61 1001.58 1001.94 1002.76 1002.96 1003.56 1003.80 1003.56 1002.62 1002.65 1002.09 1001.36 1000.62 1000.94 1001.16 1001.30 1001.39 1001.40 1001.29 1001.43 1001.68 1001.79 1001.79 1001.85 1002.12 1002.70 1003.20 1003.59 1003.98 1004.57
997.58 998.89 1000.13 1000.25 999.96 1000.37 1000.43 1000.29 1000.40 999.98 999.36 999.62 999.37 1000.12 1000.65 1001.17 1001.79 1002.07 1002.87 1002.99 1003.21 1002.96 1002.81 1002.68 1001.62 1000.72 1000.88 1001.24 1001.47 1001.91 1002.43 1002.73 1002.84 1003.39 1003.72 1004.05 1004.09 1004.21 1004.51 1004.81 1005.06 1005.40 1005.71 1006.22
997.58 998.58 999.93 999.86 999.84 999.63 999.24 999.06 998.70 998.33 998.68 998.91 999.30 1000.58 1001.49 1001.78 1001.76 1002.17 1002.74 1002.94 1002.92 1002.53 1002.63 1001.96 1001.03 1000.86 1001.40 1001.90 1002.25 1003.12 1003.75 1004.09 1004.54 1005.07 1005.47 1005.56 1005.58 1005.60 1005.82 1006.00 1006.26 1006.35 1006.87 1007.41
997.82 998.29 999.19 999.28 999.24 998.72 998.19 997.76 997.60 998.00 998.49 999.01 999.87 1000.94 1001.42 1001.72 1002.05 1002.43 1002.83 1002.60 1002.57 1002.35 1001.94 1001.12 1001.14 1001.95 1002.24 1002.75 1003.51 1004.16 1004.84 1005.30 1005.65 1006.07 1006.38 1006.31 1006.62 1006.83 1007.07 1007.48 1007.19 1007.58 1007.93 1008.37
997.54 997.70 998.29 998.38 998.58 998.85 998.87 998.65 998.74 998.81 999.04 999.88 1000.67 1001.26 1001.29 1001.51 1002.20 1002.32 1002.43 1002.50 1001.84 1000.99 1000.38 1000.82 1001.89 1002.64 1002.81 1003.41 1004.15 1004.90 1005.34 1005.60 1006.03 1006.58 1006.95 1007.01 1007.44 1007.52 1008.03 1008.17 1008.28 1008.49 1008.93 1009.30
997.53 997.76 998.21 998.38 999.15 999.75 999.63 999.70 999.94 999.98 1000.04 1000.36 1000.56 1000.89 1001.19 1001.41 1001.46 1001.53 1001.40 1000.94 1000.38 1000.12 1000.68 1001.66 1002.43 1002.91 1003.34 1004.02 1004.78 1005.20 1005.49 1005.60 1006.29 1006.81 1007.18 1007.57 1007.88 1008.05 1008.37 1008.63 1008.94 1009.24 1009.55 1009.85
997.39 998.04 998.25 998.50 999.01 999.70 1000.18 1000.31 1000.52 1000.51 1000.55 1000.25 1000.08 1000.17 1000.14 1000.40 1000.41 1000.28 1000.00 999.71 1000.00 1000.70 1001.78 1002.24 1002.67 1003.27 1004.03 1004.83 1005.39 1005.84 1005.99 1006.09 1006.63 1007.06 1007.33 1007.65 1007.93 1008.10 1008.29 1008.73 1009.14 1009.37 1009.70 1010.10
Wind_Speed
26 27 32 38 38 41 34 17 14 19 18 14 15 25 32 27 33 25 18 12 18 18 17 16 18 18 10 11 15 13 12 5 11 20 17 16 18 17 17 13 13 14 16 15
27 26 36 38 42 43 16 20 13 20 16 18 20 25 31 29 30 26 23 20 11 11 13 14 13 18 11 5 9 3 4 5 9 15 14 15 20 17 15 17 16 19 19 10
23 32 28 34 41 43 15 11 11 10 16 21 28 28 30 30 30 27 23 19 16 14 16 14 10 9 1 3 2 7 5 7 10 12 12 12 17 19 18 19 16 17 19 23
24 32 30 42 44 43 13 11 11 11 24 30 34 26 20 27 32 31 23 22 23 21 17 18 16 10 6 2 3 4 0 11 13 19 21 21 25 26 24 26 25 25 18 27
25 34 33 41 48 44 14 10 15 15 14 22 26 23 31 34 31 24 32 24 24 20 22 18 13 8 9 5 8 5 6 12 12 24 21 22 31 29 25 28 31 34 30 37
28 33 34 45 47 36 9 12 10 13 11 24 20 30 38 36 25 25 25 27 18 22 20 9 7 4 3 6 12 13 12 11 10 27 14 20 30 14 27 33 29 24 31 33
26 28 42 46 46 44 9 11 8 9 13 18 31 34 29 26 31 22 26 20 27 17 8 4 3 4 7 13 14 12 14 15 7 16 1 16 22 15 19 22 24 22 28 25
20 17 6 44 43 45 14 4 5 7 11 20 21 28 30 25 23 22 24 20 19 8 6 4 4 3 8 21 21 21 14 9 2 6 10 24 36 20 19 18 21 16 20 20
10 8 13 22 20 22 8 1 2 1 11 8 16 18 25 18 21 18 21 12 5 10 5 4 12 12 13 12 10 19 19 14 8 4 6 22 13 12 19 27 26 22 24 24
1 4 9 17 22 18 11 5 2 4 5 3 3 4 10 13 14 14 14 17 12 7 8 11 12 15 11 13 13 7 15 16 23 16 12 21 7 12 14 15 1 10 15 10
11 2 7 13 17 17 8 7 6 4 5 4 6 4 3 3 9 10 3 3 4 4 15 11 6 7 11 11 18 14 13 10 10 12 11 29 10 14 26 18 17 20 19 18
19 12 16 11 13 13 9 6 4 7 8 4 3 4 2 5 3 5 4 2 4 2 7 5 5 5 6 9 10 13 7 8 6 13 12 9 8 8 10 17 17 16 13 15
18 18 18 20 16 11 5 6 4 6 4 3 3 1 3 3 4 0 5 3 4 5 3 3 2 1 1 5 1 4 4 6 8 10 12 19 15 11 15 14 13 17 17 16
17 18 19 20 19 13 8 6 4 5 4 4 4 4 4 10 8 8 7 9 7 5 1 2 2 2 5 2 3 3 4 7 6 9 11 15 7 12 12 13 11 12 12 11
14 16 17 19 21 16 7 6 1 2 3 4 6 9 8 6 7 10 12 12 7 3 2 1 2 3 3 2 1 6 6 5 2 3 1 8 15 15 15 12 11 7 5 6
14 16 16 19 22 16 5 3 4 3 4 4 4 4 4 6 6 9 9 7 5 2 3 2 2 2 3 2 4 6 9 7 7 8 10 11 14 13 13 12 13 9 9 10
14 15 18 25 17 5 3 1 1 4 3 2 5 5 3 2 6 3 3 5 3 2 1 2 3 4 5 3 8 7 14 16 14 16 15 18 17 14 11 13 13 12 12 12
15 18 25 19 17 7 3 5 13 5 3 2 3 5 6 3 3 3 2 4 2 1 2 1 2 2 3 6 9 13 13 15 14 13 13 16 16 13 15 14 11 14 12 8
17 26 21 7 4 2 3 13 9 2 1 3 2 7 5 5 2 4 2 2 3 5 4 5 5 5 7 11 12 13 12 11 13 13 11 11 12 14 12 13 9 11 9 2
19 6 4 3 1 22 6 5 2 3 4 2 1 5 6 7 5 3 4 2 2 3 6 4 4 7 14 14 13 11 7 8 10 10 9 9 11 11 12 10 7 8 8 9
3 4 3 4 2 3 2 3 2 2 1 3 3 7 9 5 5 4 3 4 4 3 4 4 3 3 1 4 4 6 9 9 9 9 9 10 11 9 9 11 9 9 9 8
7 10 4 0 2 2 2 3 5 5 4 6 7 7 7 4 2 3 2 2 2 4 3 1 3 1 7 6 3 8 9 10 10 12 12 11 12 10 8 7 8 9 9 9
5 4 2 2 2 2 4 5 4 4 5 5 7 5 3 2 1 3 3 3 4 0 2 4 3 7 8 5 6 7 7 7 8 9 9 9 10 10 9 9 8 9 9 7
0 3 3 3 3 4 0 2 5 6 7 9 8 4 3 3 4 3 3 3 1 3 4 6 3 7 6 7 5 5 5 6 7 7 7 9 10 10 10 9 8 8 9 8
1 1 1 1 4 7 5 6 7 7 8 7 6 3 3 3 3 3 4 3 5 6 5 3 5 4 5 5 6 6 6 5 7 7 8 7 7 9 8 7 8 9 8 8
1 2 1 3 5 2 2 5 4 2 6 6 2 4 4 4 4 6 6 5 6 2 3 5 5 4 5 5 6 4 3 7 7 7 8 8 5 7 9 9 9 7 7 7
2 2 2 3 4 4 4 3 2 3 5 3 3 6 5 2 4 5 5 5 3 5 3 2 2 4 6 7 6 6 4 6 7 7 6 6 7 7 7 8 7 7 6 4
Wind_Direction
279 288 292 203 187 174 169 159 189 156 165 182 203 216 211 237 218 241 245 257 245 223 235 223 211 215 248 185 204 212 215 244 243 250 259 213 246 257 259 242 252 253 249 244
275 281 282 192 177 172 179 168 140 155 172 188 205 215 220 228 236 223 233 216 230 255 260 258 242 220 217 191 204 167 193 240 250 260 259 263 268 255 255 265 273 265 268 273
280 286 278 188 172 171 179 157 148 162 187 213 205 198 214 219 231 232 228 210 233 240 257 251 244 252 215 101 128 46 349 252 238 239 248 274 274 268 261 249 246 264 254 276
287 279 283 192 175 173 164 189 177 178 181 202 208 204 197 212 216 225 226 226 213 221 242 241 244 237 108 64 114 80 247 245 250 265 271 276 279 272 270 268 273 268 269 256
287 286 278 190 174 174 174 178 179 179 184 198 201 204 214 207 214 209 219 229 215 217 228 233 232 245 233 192 162 167 203 263 266 267 267 272 276 268 270 265 265 267 276 270
291 290 205 182 175 172 176 195 176 169 197 187 190 209 213 216 199 221 218 221 230 219 230 238 236 277 290 278 228 214 224 253 249 264 275 292 274 274 251 257 258 262 259 270
300 320 184 176 177 183 172 189 187 175 188 182 205 210 212 216 217 217 217 223 215 216 95 38 254 283 281 256 255 266 258 230 251 267 340 243 258 270 262 260 255 253 264 271
308 348 135 180 180 187 173 156 169 186 197 199 209 206 210 220 237 223 233 217 227 154 147 88 25 344 275 252 244 227 242 237 198 227 229 277 268 282 290 282 272 267 267 267
312 25 39 77 150 170 121 93 356 39 186 214 217 198 202 208 218 228 233 228 159 179 166 120 197 212 228 231 242 230 231 215 202 151 224 249 298 258 239 245 267 261 259 267
154 63 65 72 79 84 107 65 33 98 93 49 7 178 206 203 207 222 220 221 226 149 204 206 212 221 182 227 217 162 204 209 219 224 239 263 256 270 311 263 344 342 339 338
133 152 99 89 73 63 76 85 28 131 97 35 38 50 110 122 201 195 113 134 272 210 213 203 165 225 204 226 219 181 184 182 200 215 222 255 216 241 232 262 289 291 299 305
151 167 146 117 101 79 45 86 58 62 71 106 33 64 43 56 72 106 13 91 62 25 198 158 171 198 175 194 227 229 220 209 187 200 218 251 301 302 300 345 350 337 344 350
160 169 159 144 138 113 82 113 105 66 81 66 38 123 134 114 78 25 126 66 95 60 341 54 324 175 178 176 218 319 232 176 232 232 252 263 286 356 11 5 356 349 341 358
158 157 153 151 150 116 116 121 138 101 117 111 122 175 153 142 138 92 85 114 85 107 11 111 82 53 338 49 58 281 261 348 321 280 302 335 335 3 342 340 350 338 341 6
140 144 145 150 145 111 100 115 140 173 115 139 121 134 109 142 170 146 130 126 128 133 110 112 125 153 187 162 4 244 238 220 199 273 232 253 261 266 279 289 281 300 330 328
139 132 141 128 124 112 75 73 307 357 353 111 122 70 59 113 125 149 160 150 111 121 144 155 153 218 146 214 246 237 257 272 302 298 289 250 261 284 291 278 275 252 247 240
135 137 125 125 120 102 70 136 175 157 12 92 123 100 43 36 112 111 127 153 101 103 116 183 184 179 190 213 243 285 288 281 286 294 299 287 286 287 277 282 308 295 267 280
128 119 120 111 96 90 49 22 116 104 62 298 129 107 129 235 104 89 50 91 102 139 130 169 216 203 177 252 267 273 281 283 283 278 264 271 287 271 285 290 299 298 302 311
132 115 108 59 56 72 85 91 64 35 111 132 159 148 115 163 114 110 109 113 165 141 197 213 207 201 216 234 253 281 299 291 289 290 287 292 286 294 304 296 296 307 301 25
110 71 74 95 162 121 99 27 54 24 345 348 187 109 116 159 155 126 124 160 225 205 213 199 221 248 253 261 269 285 360 338 338 328 329 319 293 286 298 318 322 341 45 83
51 65 53 87 268 74 51 84 79 91 166 192 241 133 139 124 142 139 182 163 172 250 147 197 221 249 310 114 30 23 12 355 346 334 316 340 349 359 25 55 54 65 72 75
80 105 112 175 119 117 129 142 160 207 165 158 168 136 127 113 133 123 146 169 182 255 109 196 253 245 117 109 77 47 24 14 27 25 35 36 40 41 53 63 69 73 76 70
123 85 102 176 141 144 183 162 185 156 118 163 130 112 103 110 160 102 156 173 226 111 212 231 241 133 90 73 54 58 35 35 45 47 54 58 61 56 64 74 61 71 70 66
205 125 125 224 163 236 45 190 113 102 126 139 127 110 131 118 159 141 173 215 172 231 221 225 211 96 106 90 94 92 77 78 77 75 76 77 75 70 63 59 64 74 72 57
350 25 122 146 88 55 54 62 77 88 106 105 117 119 125 136 106 202 190 188 235 216 248 51 98 124 116 116 102 121 124 128 109 104 96 88 90 83 81 77 80 75 79 77
226 139 78 111 87 47 13 82 94 87 122 144 166 147 156 171 177 186 199 209 210 210 50 116 148 138 105 110 113 109 115 123 118 115 106 103 99 93 88 84 79 70 70 70
245 106 102 144 85 126 154 129 145 194 164 202 167 174 181 156 193 200 205 231 293 85 125 107 97 139 119 111 120 127 137 112 108 113 114 109 118 138 116 97 106 102 101 122